Regional Weather Roundup
Issued by NWS Cleveland, OH

Home | Current Version | Previous Version | Graphics & Text | Print | Product List | Glossary On
Versions: 1 2 3 4 5 6 7 8 9 10 11 12 13 14 15 16 17 18 19 20 21 22 23 24 25 26 27 28 29 30 31 32 33 34 35 36 37 38 39 40 41 42 43 44 45 46 47 48 49 50
000
ASUS41 KCLE 201500
RWRCLE
OHIO REGIONAL WEATHER ROUNDUP
NATIONAL WEATHER SERVICE WILMINGTON, OH
1100 AM EDT FRI APR 20 2018

NOTE: "FAIR" INDICATES FEW OR NO CLOUDS BELOW 12,000 FEET WITH NO
SIGNIFICANT WEATHER AND/OR OBSTRUCTIONS TO VISIBILITY.

OHZ001>008-015>018-024>027-034-035-043-044-201600-
   NORTHWEST OHIO

CITY           SKY/WX    TMP DP  RH WIND       PRES   REMARKS
DEFIANCE       FAIR      47  28  47 VRB3      30.49S
FINDLAY        FAIR      47  21  35 VRB6      30.47S
TOLEDO EXPRESS FAIR      46  23  40 W6        30.48S
TOLEDO EXEC    FAIR      46  23  40 N3        30.49R
LIMA           FAIR      44  24  45 VRB3      30.48R
$$

OHZ009>014-019>023-028>033-038-089-201600-
   NORTHEAST OHIO

CITY           SKY/WX    TMP DP  RH WIND       PRES   REMARKS
CLE-HOPKINS    NOT AVBL
CLE-LAKEFRONT  FAIR      41  31  67 NW9       30.47R
CUY CO. ARPT   SUNNY     41  25  52 N12       30.46R
LORAIN-ELYRIA  FAIR      43  24  47 NE13      30.47R
ASHTABULA      FAIR      40  22  48 N13       30.44R
AKRON-CANTON   FAIR      45  23  42 N14G20    30.43R
WOOSTER        NOT AVBL
MANSFIELD      FAIR      43  27  53 NW5       30.46R
YOUNGSTOWN     FAIR      43  25  49 N15       30.41R
$$

OHZ042-051>053-060>062-070>072-077>081-201600-
  SOUTHWEST OHIO

CITY           SKY/WX    TMP DP  RH WIND       PRES   REMARKS
CINC-COVINGTON FAIR      48  26  42 E9        30.48R
CINC-LUNKEN    FAIR      49  31  49 NE7       30.51R
HAMILTON       FAIR      48  27  44 SE6       30.51R
DAYTON         NOT AVBL
WRIGHT-PAT AFB FAIR      45  28  51 CALM      30.49R
DAYTON GENERAL FAIR      48  27  44 E6        30.48R
WILMINGTON     FAIR      50  27  40 VRB6      30.48R
$$

OHZ036-037-039>041-045>050-054>059-063>069-073>076-082>088-201600-
  CENTRAL AND SOUTHEAST OHIO

CITY           SKY/WX    TMP DP  RH WIND       PRES   REMARKS
COLUMBUS       FAIR      47  27  45 NW3       30.47S
OSU AIRPORT    FAIR      46  25  43 NW8       30.47S
BOLTON FIELD   SUNNY     46  30  53 NW6       30.48R
RICKENBACK AFB NOT AVBL
NEWARK         FAIR      46  25  43 W7        30.46S
MARION         FAIR      43  23  45 N5        30.47S
LANCASTER      FAIR      45  28  51 VRB5      30.48S
ZANESVILLE     FAIR      46  25  43 NW5       30.46R
NEW PHILLY     FAIR      45  24  43 NW8       30.45S
$$



USA.gov is the U.S. government's official web portal to all federal, state and local government web resources and services.